Time,TemperatureF,DewpointF,PressureIn,WindDirection,WindDirectionDegrees,WindSpeedMPH,WindSpeedGustMPH,Humidity,HourlyPrecipIn,Conditions,Clouds,dailyrainin,SoftwareType,DateUTC
2013-05-12 00:03:00,53.2,49.0,29.85,WSW,245,0.0,1.0,86,0.00,,,0.00,weatherlink.com 1.10,2013-05-12 04:03:00,
2013-05-12 00:18:00,52.4,49.0,29.86,WSW,245,0.0,1.0,88,0.00,,,0.00,weatherlink.com 1.10,2013-05-12 04:18:00,
2013-05-12 00:33:00,52.2,49.0,29.86,West,269,0.0,1.0,89,0.00,,,0.00,weatherlink.com 1.10,2013-05-12 04:33:00,
2013-05-12 00:48:00,52.7,50.0,29.86,SE,134,0.0,3.0,89,0.00,,,0.00,weatherlink.com 1.10,2013-05-12 04:48:00,
2013-05-12 01:03:00,53.0,50.0,29.85,NW,311,0.0,2.0,89,0.00,,,0.00,weatherlink.com 1.10,2013-05-12 05:03:00,
2013-05-12 01:18:00,53.0,50.0,29.86,West,273,1.0,2.0,89,0.00,,,0.00,weatherlink.com 1.10,2013-05-12 05:18:00,
2013-05-12 01:33:00,52.9,50.0,29.86,West,274,0.0,3.0,88,0.00,,,0.00,weatherlink.com 1.10,2013-05-12 05:33:00,
2013-05-12 01:48:00,53.0,50.0,29.86,WSW,245,0.0,1.0,89,0.00,,,0.00,weatherlink.com 1.10,2013-05-12 05:48:00,
2013-05-12 02:03:00,52.8,50.0,29.86,West,263,1.0,3.0,89,0.00,,,0.00,weatherlink.com 1.10,2013-05-12 06:03:00,
2013-05-12 02:18:00,52.1,50.0,29.86,NW,305,0.0,2.0,92,0.00,,,0.00,weatherlink.com 1.10,2013-05-12 06:18:00,
2013-05-12 02:33:00,51.6,50.0,29.86,WSW,240,0.0,3.0,93,0.01,,,0.01,weatherlink.com 1.10,2013-05-12 06:33:00,
2013-05-12 02:48:00,51.2,50.0,29.86,SW,215,3.0,3.0,94,0.01,,,0.01,weatherlink.com 1.10,2013-05-12 06:48:00,
2013-05-12 03:03:00,50.4,48.0,29.86,SE,129,1.0,3.0,92,0.01,,,0.01,weatherlink.com 1.10,2013-05-12 07:03:00,
2013-05-12 03:18:00,49.5,47.0,29.86,West,276,0.0,3.0,91,0.01,,,0.01,weatherlink.com 1.10,2013-05-12 07:18:00,
2013-05-12 03:34:00,48.7,46.0,29.87,ENE,76,0.0,2.0,90,0.00,,,0.01,weatherlink.com 1.10,2013-05-12 07:34:00,
2013-05-12 03:49:00,47.9,43.0,29.87,West,281,1.0,1.0,83,0.00,,,0.01,weatherlink.com 1.10,2013-05-12 07:49:00,
2013-05-12 04:04:00,47.4,43.0,29.87,SW,218,0.0,1.0,84,0.00,,,0.01,weatherlink.com 1.10,2013-05-12 08:04:00,
2013-05-12 04:19:00,47.3,42.0,29.87,SSW,212,0.0,1.0,83,0.00,,,0.01,weatherlink.com 1.10,2013-05-12 08:19:00,
2013-05-12 04:34:00,47.2,43.0,29.88,SW,221,0.0,1.0,84,0.00,,,0.01,weatherlink.com 1.10,2013-05-12 08:34:00,
2013-05-12 04:49:00,46.8,43.0,29.88,East,97,0.0,1.0,87,0.00,,,0.01,weatherlink.com 1.10,2013-05-12 08:49:00,
2013-05-12 05:04:00,46.4,42.0,29.88,SSE,163,0.0,3.0,83,0.00,,,0.01,weatherlink.com 1.10,2013-05-12 09:04:00,
2013-05-12 05:19:00,46.3,41.0,29.89,NNE,32,0.0,3.0,81,0.00,,,0.01,weatherlink.com 1.10,2013-05-12 09:19:00,
2013-05-12 05:34:00,46.1,41.0,29.90,SSW,209,1.0,3.0,81,0.00,,,0.01,weatherlink.com 1.10,2013-05-12 09:34:00,
2013-05-12 05:49:00,45.6,39.0,29.91,SSW,212,0.0,2.0,78,0.00,,,0.01,weatherlink.com 1.10,2013-05-12 09:49:00,
2013-05-12 06:04:00,45.3,39.0,29.91,WSW,242,3.0,5.0,79,0.00,,,0.01,weatherlink.com 1.10,2013-05-12 10:04:00,
2013-05-12 06:19:00,45.1,39.0,29.92,ENE,62,1.0,5.0,80,0.00,,,0.01,weatherlink.com 1.10,2013-05-12 10:19:00,
2013-05-12 06:34:00,44.9,40.0,29.93,WNW,290,0.0,2.0,82,0.00,,,0.01,weatherlink.com 1.10,2013-05-12 10:34:00,
2013-05-12 06:49:00,44.7,40.0,29.93,SW,229,1.0,1.0,83,0.00,,,0.01,weatherlink.com 1.10,2013-05-12 10:49:00,
2013-05-12 07:04:00,44.5,39.0,29.95,SSW,207,0.0,3.0,82,0.00,,,0.01,weatherlink.com 1.10,2013-05-12 11:04:00,
2013-05-12 07:19:00,44.6,39.0,29.95,WNW,283,1.0,3.0,82,0.00,,,0.01,weatherlink.com 1.10,2013-05-12 11:19:00,
2013-05-12 07:34:00,45.1,40.0,29.96,SW,235,3.0,3.0,81,0.00,,,0.01,weatherlink.com 1.10,2013-05-12 11:34:00,
2013-05-12 07:49:00,44.9,39.0,29.96,SW,217,2.0,5.0,81,0.00,,,0.01,weatherlink.com 1.10,2013-05-12 11:49:00,
2013-05-12 08:04:00,45.1,39.0,29.96,ESE,108,1.0,2.0,80,0.00,,,0.01,weatherlink.com 1.10,2013-05-12 12:04:00,
2013-05-12 08:19:00,44.5,38.0,29.96,West,277,0.0,3.0,78,0.00,,,0.01,weatherlink.com 1.10,2013-05-12 12:19:00,
2013-05-12 08:34:00,45.5,38.0,29.97,NNE,25,0.0,2.0,76,0.00,,,0.01,weatherlink.com 1.10,2013-05-12 12:34:00,
2013-05-12 08:49:00,47.9,37.0,29.97,NW,310,1.0,3.0,67,0.00,,,0.01,weatherlink.com 1.10,2013-05-12 12:49:00,
2013-05-12 09:04:00,49.0,36.0,29.97,East,86,0.0,4.0,62,0.00,,,0.01,weatherlink.com 1.10,2013-05-12 13:04:00,
2013-05-12 09:19:00,50.2,37.0,29.97,SSW,205,3.0,4.0,62,0.00,,,0.01,weatherlink.com 1.10,2013-05-12 13:19:00,
2013-05-12 09:34:00,51.2,37.0,29.97,ESE,121,2.0,4.0,58,0.00,,,0.01,weatherlink.com 1.10,2013-05-12 13:34:00,
2013-05-12 09:49:00,51.2,34.0,29.97,NNW,337,1.0,6.0,52,0.00,,,0.01,weatherlink.com 1.10,2013-05-12 13:49:00,
2013-05-12 10:04:00,50.9,35.0,29.97,WSW,242,3.0,6.0,55,0.00,,,0.01,weatherlink.com 1.10,2013-05-12 14:04:00,
2013-05-12 10:19:00,52.4,36.0,29.96,West,259,0.0,7.0,54,0.00,,,0.01,weatherlink.com 1.10,2013-05-12 14:19:00,
2013-05-12 10:34:00,53.4,34.0,29.96,WNW,295,4.0,5.0,48,0.00,,,0.01,weatherlink.com 1.10,2013-05-12 14:34:00,
2013-05-12 10:49:00,52.2,33.0,29.96,WSW,246,3.0,6.0,49,0.00,,,0.01,weatherlink.com 1.10,2013-05-12 14:49:00,
2013-05-12 11:04:00,53.4,35.0,29.96,West,276,1.0,8.0,51,0.00,,,0.01,weatherlink.com 1.10,2013-05-12 15:04:00,
2013-05-12 11:19:00,52.7,33.0,29.97,West,278,1.0,5.0,47,0.00,,,0.01,weatherlink.com 1.10,2013-05-12 15:19:00,
2013-05-12 11:35:00,52.8,35.0,29.97,SE,136,2.0,9.0,51,0.00,,,0.01,weatherlink.com 1.10,2013-05-12 15:35:00,
2013-05-12 11:50:00,53.4,33.0,29.97,WSW,245,1.0,6.0,46,0.00,,,0.01,weatherlink.com 1.10,2013-05-12 15:50:00,
2013-05-12 12:05:00,52.7,32.0,29.96,West,271,1.0,8.0,46,0.00,,,0.01,weatherlink.com 1.10,2013-05-12 16:05:00,
2013-05-12 12:20:00,51.7,34.0,29.97,SW,217,2.0,5.0,51,0.00,,,0.01,weatherlink.com 1.10,2013-05-12 16:20:00,
2013-05-12 12:35:00,52.7,34.0,29.96,ENE,62,2.0,5.0,50,0.00,,,0.01,weatherlink.com 1.10,2013-05-12 16:35:00,
2013-05-12 12:50:00,51.9,34.0,29.97,SSW,212,3.0,7.0,51,0.00,,,0.01,weatherlink.com 1.10,2013-05-12 16:50:00,
2013-05-12 13:05:00,53.1,35.0,29.96,WSW,255,1.0,7.0,50,0.00,,,0.01,weatherlink.com 1.10,2013-05-12 17:05:00,
2013-05-12 13:20:00,53.8,35.0,29.97,NNE,31,1.0,7.0,49,0.00,,,0.01,weatherlink.com 1.10,2013-05-12 17:20:00,
2013-05-12 13:35:00,53.4,33.0,29.97,SW,226,2.0,5.0,47,0.00,,,0.01,weatherlink.com 1.10,2013-05-12 17:35:00,
2013-05-12 13:50:00,53.7,34.0,29.97,ESE,105,2.0,4.0,47,0.00,,,0.01,weatherlink.com 1.10,2013-05-12 17:50:00,
2013-05-12 14:05:00,52.6,32.0,29.98,WNW,302,2.0,7.0,46,0.00,,,0.01,weatherlink.com 1.10,2013-05-12 18:05:00,
2013-05-12 14:20:00,53.3,33.0,29.98,SW,229,2.0,5.0,47,0.00,,,0.01,weatherlink.com 1.10,2013-05-12 18:20:00,
2013-05-12 14:35:00,52.0,34.0,29.98,WSW,257,1.0,4.0,50,0.00,,,0.01,weatherlink.com 1.10,2013-05-12 18:35:00,
2013-05-12 14:50:00,54.1,33.0,29.98,NNE,32,2.0,7.0,45,0.00,,,0.01,weatherlink.com 1.10,2013-05-12 18:50:00,
2013-05-12 15:05:00,52.7,31.0,29.98,SW,217,1.0,9.0,44,0.00,,,0.01,weatherlink.com 1.10,2013-05-12 19:05:00,
2013-05-12 15:20:00,53.1,34.0,29.98,WNW,288,4.0,9.0,49,0.00,,,0.01,weatherlink.com 1.10,2013-05-12 19:20:00,
2013-05-12 15:35:00,54.3,32.0,29.98,WSW,246,1.0,9.0,43,0.00,,,0.01,weatherlink.com 1.10,2013-05-12 19:35:00,
2013-05-12 15:50:00,53.8,33.0,29.98,NNW,328,0.0,5.0,45,0.00,,,0.01,weatherlink.com 1.10,2013-05-12 19:50:00,
2013-05-12 16:05:00,52.6,33.0,29.98,NE,40,2.0,5.0,47,0.00,,,0.01,weatherlink.com 1.10,2013-05-12 20:05:00,
2013-05-12 16:20:00,53.7,31.0,29.98,WSW,240,2.0,5.0,43,0.00,,,0.01,weatherlink.com 1.10,2013-05-12 20:20:00,
2013-05-12 16:35:00,52.8,32.0,29.99,West,277,3.0,6.0,45,0.00,,,0.01,weatherlink.com 1.10,2013-05-12 20:35:00,
2013-05-12 16:50:00,53.5,32.0,29.99,WSW,245,1.0,5.0,44,0.00,,,0.01,weatherlink.com 1.10,2013-05-12 20:50:00,
2013-05-12 17:05:00,53.4,29.0,29.99,West,276,1.0,9.0,40,0.00,,,0.01,weatherlink.com 1.10,2013-05-12 21:05:00,
2013-05-12 17:20:00,55.0,33.0,29.99,SW,218,6.0,7.0,43,0.00,,,0.01,weatherlink.com 1.10,2013-05-12 21:20:00,
2013-05-12 17:35:00,54.2,33.0,30.00,SW,225,5.0,9.0,44,0.00,,,0.01,weatherlink.com 1.10,2013-05-12 21:35:00,
2013-05-12 17:50:00,52.9,31.0,30.00,NNW,338,1.0,5.0,43,0.00,,,0.01,weatherlink.com 1.10,2013-05-12 21:50:00,
2013-05-12 18:05:00,53.0,31.0,30.00,NNE,27,2.0,-999.0,43,-99.99,,,0.01,weatherlink.com 1.10,2013-05-12 22:05:00,
2013-05-12 18:20:00,53.1,32.0,30.00,West,266,3.0,8.0,44,0.00,,,0.01,weatherlink.com 1.10,2013-05-12 22:20:00,
2013-05-12 18:35:00,52.2,30.0,30.00,WNW,287,3.0,5.0,43,0.00,,,0.01,weatherlink.com 1.10,2013-05-12 22:35:00,
2013-05-12 18:50:00,51.8,31.0,30.00,WNW,298,0.0,5.0,46,0.00,,,0.01,weatherlink.com 1.10,2013-05-12 22:50:00,
2013-05-12 19:05:00,51.3,33.0,30.01,South,187,2.0,5.0,49,0.00,,,0.01,weatherlink.com 1.10,2013-05-12 23:05:00,
2013-05-12 19:20:00,50.9,31.0,30.01,West,270,0.0,3.0,47,0.00,,,0.01,weatherlink.com 1.10,2013-05-12 23:20:00,
2013-05-12 19:36:00,50.3,32.0,30.02,SW,221,1.0,4.0,49,0.00,,,0.01,weatherlink.com 1.10,2013-05-12 23:36:00,
2013-05-12 19:50:00,50.0,32.0,30.02,WSW,250,0.0,1.0,51,0.00,,,0.01,weatherlink.com 1.10,2013-05-12 23:50:00,
2013-05-12 20:05:00,49.3,32.0,30.02,West,269,0.0,2.0,52,0.00,,,0.01,weatherlink.com 1.10,2013-05-13 00:05:00,
2013-05-12 20:20:00,48.8,32.0,30.03,WSW,251,0.0,3.0,52,0.00,,,0.01,weatherlink.com 1.10,2013-05-13 00:20:00,
2013-05-12 20:35:00,48.1,33.0,30.03,West,264,1.0,1.0,56,0.00,,,0.01,weatherlink.com 1.10,2013-05-13 00:35:00,
2013-05-12 20:50:00,47.5,32.0,30.03,West,269,0.0,2.0,56,0.00,,,0.01,weatherlink.com 1.10,2013-05-13 00:50:00,
2013-05-12 21:05:00,47.1,33.0,30.04,West,272,0.0,3.0,59,0.00,,,0.01,weatherlink.com 1.10,2013-05-13 01:05:00,
2013-05-12 21:20:00,46.3,33.0,30.05,WSW,245,0.0,0.0,61,0.00,,,0.01,weatherlink.com 1.10,2013-05-13 01:20:00,
2013-05-12 21:35:00,44.9,34.0,30.06,WSW,243,0.0,1.0,66,0.00,,,0.01,weatherlink.com 1.10,2013-05-13 01:35:00,
2013-05-12 21:50:00,43.8,35.0,30.06,WNW,285,0.0,1.0,70,0.00,,,0.01,weatherlink.com 1.10,2013-05-13 01:50:00,
2013-05-12 22:05:00,43.5,35.0,30.07,WNW,285,0.0,1.0,73,0.00,,,0.01,weatherlink.com 1.10,2013-05-13 02:05:00,
2013-05-12 22:20:00,43.4,36.0,30.08,WNW,285,0.0,1.0,76,0.00,,,0.01,weatherlink.com 1.10,2013-05-13 02:20:00,
2013-05-12 22:35:00,43.7,37.0,30.08,WNW,285,0.0,1.0,76,0.00,,,0.01,weatherlink.com 1.10,2013-05-13 02:35:00,
2013-05-12 22:50:00,44.1,36.0,30.09,WNW,285,0.0,1.0,73,0.00,,,0.01,weatherlink.com 1.10,2013-05-13 02:50:00,
2013-05-12 23:05:00,44.5,35.0,30.09,West,280,0.0,0.0,69,0.00,,,0.01,weatherlink.com 1.10,2013-05-13 03:05:00,
2013-05-12 23:20:00,44.3,34.0,30.09,West,280,0.0,0.0,68,0.00,,,0.01,weatherlink.com 1.10,2013-05-13 03:20:00,
2013-05-12 23:35:00,44.1,36.0,30.09,West,280,0.0,1.0,72,0.00,,,0.01,weatherlink.com 1.10,2013-05-13 03:35:00,
2013-05-12 23:50:00,43.7,35.0,30.09,West,280,0.0,0.0,71,0.00,,,0.01,weatherlink.com 1.10,2013-05-13 03:50:00,